User: anonymous   Login
Location: Unspecified
(0.0000°N, 0.0000°E)
Time: 05:32:38
(UTC+00:00)
Language:

Oscar 10/S400 - Orbit

View from above orbital plane
View from above orbital plane
View from above satellite
View from above satellite

Ground track
Ground track

The orbit data is extracted from the following two-line orbital elements,

1 14129U 83058B   20225.12935697  .00000206  00000-0  00000+0 0  9991
2 14129  25.7038 207.2778 6091906 257.2344  32.1273  2.05871403251539
Epoch (UTC): 12 August 2020 03:06:16
Eccentricity: 0.6091906
inclination: 25.7038°
perigee height: 3822 km
apogee height: 35624 km
right ascension of ascending node: 207.2778°
argument of perigee: 257.2344°
revolutions per day: 2.05871403
mean anomaly at epoch: 32.1273°
orbit number at epoch: 25153

The dashed part of the orbit path shows where the satellite is in the earth's shadow,  

DLR